Вернуться в каталог

STARLINK-37436

АктивенСвязьVLEO
NORAD 69365·PAYLOAD·🇺🇸 United States

Запущен Jun 4, 2026 с Cape Canaveral Space Force Station

Loading…

Ближайшие Пролёты (ближайшие 24 часа)

TLE

СвежийSource: CelesTrak SupGP

Эпоха: Sep 15, 2026, 02:59 UTC

1 69365C 26123N   26258.12479167 -.00019579  00000+0 -57848-3 0  2588
2 69365  53.1584 166.6923 0001248  78.4464  39.2704 15.34400116    19

Отслеживайте STARLINK-37436 в реальном времени с AllMySat

Download on the App Store